Regional Weather Roundup
Issued by NWS

Home | Current Version | Previous Version | Graphics & Text | Print | Product List | Glossary On
Versions: 1 2 3 4 5 6 7 8 9 10 11 12 13 14 15 16 17 18 19 20 21 22 23 24 25 26 27 28 29 30 31 32 33 34 35 36 37 38 39 40 41 42 43 44 45 46 47 48 49 50
161
ASUS43 KDMX 060208
RWRIA

WEATHER ROUNDUP FOR IOWA
NATIONAL WEATHER SERVICE DES MOINES IA
800 PM CST FRI FEB 05 2016

NOTE: "FAIR" INDICATES FEW OR NO CLOUDS BELOW 12,000 FEET WITH NO
SIGNIFICANT WEATHER AND/OR OBSTRUCTIONS TO VISIBILITY.

* - THESE STATIONS ARE NOT NWS STATIONS...THUS NOT UNDER NWS
QUALITY CONTROL.  THEY ALSO DO NOT REPORT WEATHER SUCH
AS PRECIPITATION OR FOG.

IAZ001>003-012>014-020>022-031>034-043>046-060300-
   NORTHWEST IOWA

CITY           SKY/WX    TMP DP  RH WIND       PRES   REMARKS
CARROLL *      CLOUDY    28  28 100 S12       30.23S WCI  18
CHEROKEE *     CLOUDY    28  28 100 CALM      30.22R FOG
DENISON *      CLOUDY    28  28 100 SW5       30.20S FOG     WCI  23
LE MARS *      MIX PCPN  27  27 100 CALM      30.22F
ORANGE CITY *  CLOUDY    27  27 100 SW3       30.20S FOG
SHELDON *      CLOUDY    27  27 100 SW9       30.18F FOG     WCI  17
SIOUX CITY     CLOUDY    29  25  85 SE3       30.22R FOG
SPENCER        CLOUDY    26  23  88 SW8       30.20S FOG     WCI  18
STORM LAKE *   CLOUDY    27  27 100 SW12      30.20S FOG     WCI  16
$$

IAZ055>058-069>071-079>083-090>094-060300-
   SOUTHWEST IOWA

CITY           SKY/WX    TMP DP  RH WIND       PRES   REMARKS
ATLANTIC *     CLOUDY    30  28  93 S8        30.24F WCI  23
AUDUBON *      CLOUDY    28  27  93 S7        30.23F WCI  21
CLARINDA *     FOG       27  27 100 CALM      30.28F VSB 1/4
COUNCIL BLFS * CLOUDY    28  28 100 S7        30.23F FOG     WCI  21
CRESTON *      CLOUDY    30  28  93 S10       30.26F WCI  21
HARLAN  *      CLOUDY    30  28  93 S10       30.25F FOG     WCI  21
LAMONI         CLOUDY    30  26  85 S6        30.27F WCI  24
RED OAK *      CLOUDY    28  28 100 CALM      30.26F FOG
SHENANDOAH *   MOCLDY    27  27 100 S3        30.27F FOG
$$

IAZ047>049-059>061-072>074-084-060300-
   CENTRAL IOWA

CITY           SKY/WX    TMP DP  RH WIND       PRES   REMARKS
AMES           CLOUDY    26  24  92 S6        30.28S WCI  19
ANKENY *       CLOUDY    28  27  93 S6        30.29S WCI  22
BOONE *        CLOUDY    27  25  93 S9        30.24F WCI  17
CHARITON *     MIX PCPN  30  25  80 S9        30.28F WCI  22
DES MOINES     FLURRIES  30  23  75 S8        30.28F WCI  22
GRINNELL*      CLOUDY    28  23  80 SE7       30.29S WCI  21
KNOXVILLE *    CLOUDY    30  21  69 S8        30.28F WCI  23
MARSHALLTOWN   LGT SNOW  25  23  92 S10       30.27F FOG     WCI  15
NEWTON *       MIX PCPN  28  27  93 S8        30.28F WCI  20
PELLA *        FLURRIES  30  23  74 S8        30.30F WCI  23
$$

IAZ004>006-015-016-023>025-035-036-060300-
   NORTH CENTRAL IOWA

CITY           SKY/WX    TMP DP  RH WIND       PRES   REMARKS
ALGONA *       CLOUDY    25  25 100 S13       30.21R WCI  13
CLARION *      CLOUDY    23  21  93 S16       30.23F WCI  10
ESTHERVILLE    CLOUDY    25  23  92 SW10      30.19S WCI  15
FORT DODGE *   CLOUDY    27  21  80 S15       30.23F WCI  15
MASON CITY     CLOUDY    22  20  92 S12       30.25S WCI  10
FOREST CITY *  CLOUDY    23  23 100 S12       30.22F WCI  12
WEBSTER CITY * CLOUDY    27  25  93 S12       30.23F WCI  16
IOWA FALLS *   CLOUDY    25  23  93 S9        30.27F WCI  15
$$

IAZ007>011-017>019-026>030-037>042-050>054-066-060300-
   NORTHEAST IOWA

CITY           SKY/WX    TMP DP  RH WIND       PRES   REMARKS
CEDAR RAPIDS   CLOUDY    27  22  81 S8        30.29F WCI  19
CHARLES CITY * CLOUDY    23  23 100 S12       30.26S WCI  12
CLINTON *      CLOUDY    28  23  81 S5        30.33F WCI  23
DECORAH *      CLOUDY    21  18  86 S9        30.25F WCI  11
DUBUQUE        CLOUDY    25  20  81 S7        30.29F WCI  17
MONTICELLO *   CLOUDY    28  23  80 S7        30.31S WCI  21
OELWEIN *      CLOUDY    25  21  86 S10       30.27F WCI  15
WATERLOO       CLOUDY    24  19  81 S6        30.28F WCI  17
$$

IAZ064-065-067-068-078-060300-
   EAST CENTRAL IOWA

CITY           SKY/WX    TMP DP  RH WIND       PRES   REMARKS
DAVENPORT      MOCLDY    28  21  75 S5        30.33F WCI  23
IOWA CITY      CLOUDY    28  22  78 S6        30.34F WCI  22
MT. PLEASANT * CLOUDY    30  25  80 SE6       30.33F WCI  24
MUSCATINE *    CLOUDY    28  23  80 S3        30.35S
QUAD CITIES    CLOUDY    28  21  75 CALM      30.33F
$$

IAZ062-063-075>077-085>089-095>099-060300-
   SOUTHEAST IOWA

CITY           SKY/WX    TMP DP  RH WIND       PRES   REMARKS
BURLINGTON     CLOUDY    27  22  81 CALM      30.33F
FAIRFIELD *    CLOUDY    28  23  80 SE5       30.31F WCI  23
FORT MADISON * CLOUDY    27  21  80 SE3       30.34F
KEOKUK *       CLOUDY    28  21  74 SE3       30.33F
OSKALOOSA *    CLOUDY    30  23  74 SE7       30.30F WCI  23
CENTERVILLE *    N/A    N/A N/A N/A MISG        N/A
OTTUMWA        CLOUDY    30  21  69 S7        30.30F WCI  23
WASHINGTON *   CLOUDY    27  25  93 SE5       30.33F WCI  21
$$

ABBREVIATIONS USED IN REMARKS
   TC - TEMPERATURES IN CELSIUS
  WCI - WIND CHILL INDEX
   HX - HEAT INDEX
  VSB - VISIBILITY
$$





USA.gov is the U.S. government's official web portal to all federal, state and local government web resources and services.